Torna al catalogo

FENGYUN 1C DEB

AttivoSSO
NORAD 29773·DEBRIS·🇨🇳 China

Lanciato May 10, 1999 da Taiyuan Satellite Launch Center

Loading…

Prossimi Passaggi (prossime 24 ore)

TLE

AggiornatoSource: Space-Track

Epoca: Sep 14, 2026, 09:25 UTC

1 29773U 99025BP  26257.39298833  .00000543  00000-0  23524-3 0  9991
2 29773  99.0210  64.4006 0046620 212.6711 176.1851 14.28021080 21300

Traccia FENGYUN 1C DEB in tempo reale con AllMySat

Download on the App Store